Regional Weather Roundup
Issued by NWS

Home | Current Version | Previous Version | Graphics & Text | Print | Product List | Glossary On
Versions: 1 2 3 4 5 6 7 8 9 10 11 12 13 14 15 16 17 18 19 20 21 22 23 24 25 26 27 28 29 30 31 32 33 34 35 36 37 38 39 40 41 42 43 44 45 46 47 48 49 50
000
ASUS43 KOAX 281602
RWRNE

WEATHER ROUNDUP FOR NEBRASKA
NATIONAL WEATHER SERVICE OMAHA NE
1100 AM CDT WED JUN 28 2017

NOTES: SATELLITE DATA IS BEING USED TO AUGMENT CLOUD COVER ABOVE
       12000 FEET.
       "FAIR" INDICATES FEW OR NO CLOUDS BELOW 12,000 FEET WITH NO
       SIGNIFICANT WEATHER AND/OR OBSTRUCTIONS TO VISIBILITY.

  * THESE STATIONS DO NOT REPORT WEATHER SUCH AS RAIN...SNOW OR FOG.

NEZ001>004-019>022-054>056-281700-
NEBRASKA PANHANDLE

CITY           SKY/WX    TMP DP  RH WIND       PRES   REMARKS
SCOTTSBLUFF    SUNNY     73  51  46 NW8       29.88F
ALLIANCE       SUNNY     72  53  51 NW9       29.86F
CHADRON        SUNNY     74  49  41 CALM      29.83F
GORDON         FAIR      72  53  52 NW6       29.83S
KIMBALL        SUNNY     74  45  35 NW8       29.94S
SIDNEY         SUNNY     76  46  34 N8        29.90S
$$

NEZ057>060-069>072-079>082-281700-
SOUTHWEST NEBRASKA

CITY           SKY/WX    TMP DP  RH WIND       PRES   REMARKS
NORTH PLATTE   SUNNY     80  55  42 NW9       29.78F
IMPERIAL       SUNNY     79  48  33 NW12      29.84R
LEXINGTON      SUNNY     77  62  59 NW9       29.76S
MCCOOK         SUNNY     81  56  42 NW12      29.78F
OGALLALA       SUNNY     77  53  43 N10       29.83F
$$

NEZ005>010-023>029-035>040-094-281700-
NORTH CENTRAL NEBRASKA

CITY           SKY/WX    TMP DP  RH WIND       PRES   REMARKS
VALENTINE      SUNNY     79  52  38 NW10      29.75S
AINSWORTH      SUNNY     75  58  54 NW10      29.76S
BROKEN BOW     SUNNY     77  59  53 NW10      29.75S
O`NEILL        SUNNY     76  60  56 NW16G22   29.70S
ORD            SUNNY     77  59  53 NW8       29.71S
THEDFORD       SUNNY     78  55  45 NW15      29.79S
$$

NEZ041-046>049-061>064-073>077-083>087-281700-
SOUTH CENTRAL NEBRASKA

CITY           SKY/WX    TMP DP  RH WIND       PRES   REMARKS
GRAND ISLAND   SUNNY     80  67  64 SW18      29.73F
AURORA         SUNNY     79  63  58 SW13      29.72F
HASTINGS       SUNNY     80  63  55 VRB7      29.75F
HEBRON         PTSUNNY   86  68  53 SW17G29   29.71F
HOLDREGE       SUNNY     79  63  57 W10G18    29.75F
KEARNEY *      MOSUNNY   81  64  57 SW15      29.75S
YORK           SUNNY     81  66  61 SW15      29.72F
$$

NEZ011>018-030>034-042>045-281700-
NORTHEAST NEBRASKA

CITY           SKY/WX    TMP DP  RH WIND       PRES   REMARKS
NORFOLK        MOSUNNY   77  67  71 SW14      29.67F
ALBION         SUNNY     77  64  63 W7        29.70S
BLAIR          CLOUDY    78  70  75 S15       29.70F
FREMONT        MOSUNNY   81  69  66 SW12G21   29.70S
TEKAMAH        MOSUNNY   78  69  73 S21G26    29.66F
WAYNE          CLOUDY    76  73  91 SW17      29.66F
$$

NEZ050>053-065>068-078-088>093-281700-
SOUTHEAST NEBRASKA

CITY           SKY/WX    TMP DP  RH WIND       PRES   REMARKS
LINCOLN        SUNNY     81  69  67 S20G25    29.71F
OMAHA EPPLEY   CLOUDY    79  69  71 S14       29.69F
BEATRICE       PTSUNNY   82  71  69 S18       29.73F
FALLS CITY     PTSUNNY   80  71  74 SW20      29.74F
NEBRASKA CITY    N/A    N/A N/A N/A MISG        N/A
PLATTSMOUTH    SUNNY     76  69  77 S15G21    29.73S
$$

NEZ044-045-051>053-067-281700-
OMAHA AREA

CITY           SKY/WX    TMP DP  RH WIND       PRES   REMARKS
OMAHA EPPLEY   CLOUDY    79  69  71 S14       29.69F
BLAIR          CLOUDY    78  70  75 S15       29.70F
FREMONT        MOSUNNY   81  69  66 SW12G21   29.70S
MILLARD        SUNNY     80  72  76 S12G21    29.70F
OFFUTT AFB     MOSUNNY   79  70  73 S15       29.70F
PLATTSMOUTH    SUNNY     76  69  77 S15G21    29.73S
WAHOO          FAIR      81  71  71 S12G22    29.70S
$$




USA.gov is the U.S. government's official web portal to all federal, state and local government web resources and services.